#timestamp,LO_Frequency,Hit,StdDev 
1662656415.1,286047007.6,N
1662656416.0,286047007.6,N
1662656435.8,286047010.7,Y
1662656455.7,286047009.2,P
1662656475.5,286047012.3,P
1662656495.3,286047008.8,N
1662656515.2,286047010.8,Y
1662656535.0,286047001.7,P
1662656535.9,286047001.7,N
1662656555.7,286047001.0,N
1662656575.6,286047000.7,N
1662656595.4,286047001.2,N
1662656615.3,286046997.6,N
1662656635.1,286046998.3,N
1662656636.0,286046998.3,N
1662656655.8,286047002.2,N
1662656675.7,286047001.4,N
1662656695.5,286047004.0,N
1662656715.3,286047002.5,N
1662656735.2,286047000.7,N
1662656755.0,286046999.4,N
1662656755.9,286046999.4,N
1662656775.8,286046997.0,N
1662656795.6,286046997.3,N
1662656815.4,286046995.5,N
1662656835.3,286046997.1,N
1662656855.1,286046996.6,N
1662656856.0,286046996.6,N
1662656875.8,286046997.0,N
1662656895.7,286047002.5,N
1662656915.5,286047002.9,N
1662656935.3,286047002.9,N
1662656955.2,286047005.9,N
1662656975.0,286047001.5,N
1662656975.9,286047001.5,N
1662656995.8,286047001.4,N
1662657015.6,286047003.0,N
1662657035.4,286047006.9,N
1662657055.3,286047008.2,N
1662657075.1,286047008.6,N
1662657095.9,286047007.5,N
1662657115.7,286047003.2,N
1662657135.5,286047003.2,N
1662657155.4,286047003.9,N
1662657175.2,286047004.3,N
1662657195.1,286047002.5,N
1662657196.0,286047002.5,N
1662657215.8,286047002.0,N
1662657235.6,286047000.2,N
1662657255.5,286047004.2,N
1662657275.3,286047006.6,N
1662657295.2,286047008.3,N
1662657315.0,286047010.2,N
1662657315.9,286047010.2,N
1662657335.8,286047008.0,N
1662657355.6,286047006.7,N
1662657375.4,286047006.9,N
1662657395.3,286047006.9,N
1662657415.1,286047005.1,N
1662657435.9,286047010.7,Y
1662657455.7,286047004.9,P
1662657475.6,286047004.6,P
1662657495.4,286047007.3,P
1662657515.2,286047006.5,Y
1662657535.1,286047002.2,P
1662657536.0,286047002.2,N
1662657555.8,286047002.0,N
1662657575.7,286047000.3,N
1662657595.5,286047002.3,N
1662657615.3,286047001.9,N
1662657635.2,286047000.1,N
1662657655.0,286047001.9,N
1662657655.9,286047001.9,N
1662657675.8,286047002.0,N
1662657695.6,286047001.6,N
1662657715.4,286047002.8,N
1662657735.3,286047003.1,N
1662657755.1,286047001.3,N
1662657775.8,286047002.7,N
1662657795.7,286047001.8,N
1662657815.5,286047002.1,N
1662657835.3,286047002.3,N
1662657855.2,286046998.5,N
1662657875.0,286047004.8,Y
1662657875.9,286047004.8,P
1662657895.8,286047002.0,N
1662657915.6,286047004.4,P
1662657935.5,286047002.7,N
1662657955.3,286047000.7,N
1662657975.1,286047002.7,N
1662657995.9,286047000.9,N
1662658015.7,286046999.1,N
1662658035.6,286047000.7,N
1662658055.4,286047005.9,Y
1662658075.2,286047001.8,P
1662658095.1,286047001.8,P
1662658096.0,286047001.8,P
1662658115.8,286047006.7,Y
1662658135.7,286047010.4,P
1662658155.5,286047010.4,N
1662658175.3,286047008.3,N
1662658195.2,286047007.1,N
1662658215.9,286047005.9,N
1662658235.7,286047008.1,N
1662658255.6,286047012.4,Y
1662658275.4,286047001.7,P
1662658295.2,286047004.7,N
1662658315.1,286047008.6,P
1662658316.0,286047008.6,Y
1662658335.9,286047002.2,P
1662658355.7,286047003.2,N
1662658375.5,286047004.2,N
1662658395.4,286047003.2,N
1662658415.2,286047007.6,Y
1662658435.1,286047003.6,P
1662658436.0,286047003.6,P
1662658455.8,286047003.5,P
1662658475.6,286047002.4,Y
1662658495.5,286046997.9,P
1662658515.3,286046998.3,N
1662658535.2,286047002.3,N
1662658555.9,286047002.1,N
1662658575.7,286046994.9,N
1662658595.6,286046994.0,N
1662658615.4,286046992.5,N
1662658635.2,286046990.8,N
1662658655.1,286046991.7,N
1662658656.0,286046991.7,N
1662658675.8,286046996.4,N
1662658695.7,286046995.2,N
1662658715.5,286046995.4,N
1662658735.3,286046998.5,N
1662658755.2,286047001.9,N
1662658775.0,286047005.1,N
1662658805.9,286047005.7,E
1662658815.9,286047000.4,N
1662658835.7,286046993.0,P
1662658855.5,286046992.7,N
1662658875.4,286046990.6,N
1662658895.2,286046997.4,N
1662658915.0,286047000.7,N
1662658915.9,286047000.7,N
1662658935.8,286046998.4,N
1662658955.6,286046995.0,N
1662658975.5,286046997.7,N
1662658995.3,286046996.1,N
1662659015.1,286046994.3,N
1662659035.9,286047000.6,N
1662659055.7,286047003.7,N
1662659075.5,286047007.2,N
1662659095.4,286047004.2,N
1662659115.2,286047002.3,N
1662659135.1,286047002.1,N
1662659136.0,286047002.1,N
1662659155.8,286047002.9,N
1662659175.6,286047005.4,N
1662659195.5,286047005.4,N
1662659215.3,286047004.0,N
1662659235.1,286047003.8,N
1662659255.9,286047007.3,N
1662659275.7,286047005.2,N
1662659295.6,286047008.8,N
1662659315.4,286047013.7,N
1662659335.2,286047017.1,Y
1662659355.1,286047017.6,P
1662659356.0,286047017.6,N
1662659375.8,286047026.0,P
1662659395.6,286047026.0,N
1662659415.5,286047024.0,N
1662659435.3,286047022.1,N
1662659455.2,286047024.7,Y
1662659475.9,286047001.4,P
1662659495.7,286047001.8,N
1662659515.6,286047003.8,N
1662659535.4,286047001.4,N
1662659555.2,286047005.6,N
1662659575.1,286047003.2,N
1662659576.0,286047003.2,N
1662659595.8,286047004.1,N
1662659615.7,286047001.7,N
1662659635.5,286047005.1,N
1662659655.3,286047007.8,N
1662659675.2,286047008.9,N
1662659695.0,286047003.1,N
1662659695.9,286047003.1,N
1662659715.7,286047001.9,N
1662659735.6,286047007.2,N
1662659755.4,286047008.2,N
1662659775.3,286047013.2,Y
1662659795.1,286047009.0,P
1662659796.0,286047009.0,P
1662659815.8,286047006.5,P
1662659835.7,286047009.2,Y
1662659855.5,286047010.1,P
1662659875.4,286047010.7,P
1662659895.2,286047008.1,P
1662659915.0,286047005.5,Y
1662659915.9,286047005.5,P
1662659935.8,286046994.3,P
1662659955.6,286046993.3,N
1662659975.4,286046997.0,N
1662659995.3,286047000.9,N
